STARLINK-34645

Last updated on Fri Aug 08 2025 00:02:05 GMT+0000 (Coordinated Universal Time)

1 64766U 25147M 25218.91668981 .00012162 00000+0 31359-3 0 9999 2 64766 53.1599 163.2697 0001330 99.5449 55.9998 15.39616512 5935

Satellite not in orbit

STARLINK-34645